Location: Unspecified
(0.0000°N, 0.0000°E)
Time: 06:04:02
(UTC+00:00)

Envisat - Pass Details

Date: 18 October 2019
Orbit: 764 x 766 km, 98.1° (Epoch: 14 October)

Event Time Altitude Azimuth Distance (km) Brightness Sun altitude
Rises 18:30:33 0° 168° (SSE) 3,230 6.2 -11.2°
Reaches altitude 10° 18:32:52 10° 168° (SSE) 2,301 5.5 -11.7°
Maximum altitude 18:37:57 89° 76° (ENE) 768 3.0 -13.0°
Drops below altitude 10° 18:43:00 10° 348° (NNW) 2,291 5.5 -14.2°
Sets 18:45:17 0° 348° (NNW) 3,214 6.3 -14.8°
